Kitakyushu, Japan

8:25 PM JST on November 23, 2017 (GMT +0900)
Kitakyushu

Weather History for RJFR - November, 2017

Change the Weather History Date:

Wednesday, November 15, 2017

  Actual Average Record
Temperature  
Mean Temperature 57 °F -  
Max Temperature 59 °F 56 °F 69 °F (2015)
Min Temperature 55 °F 45 °F 48 °F (2001)
Degree Days  
Heating Degree Days 8    
Growing Degree Days 7 (Base 50)    
Moisture  
Dew Point 37 °F    
Average Humidity 48    
Maximum Humidity 67    
Minimum Humidity 41    
Precipitation  
Precipitation 0.00 in - - ()
Sea Level Pressure  
Sea Level Pressure 30.07 in    
Wind  
Wind Speed 10 mph ()    
Max Wind Speed 17 mph    
Max Gust Speed 23 mph    
Visibility 6.2 miles    
Events      
Averages and records for this station are not official NWS values.
T = Trace of Precipitation, MM = Missing Value Source: Averaged Metar Reports

Daily Weather History Graph

Daily Weather History Graph

Search for Another Location

Airport or City:

Trip Planner

Search our weather history database for the weather conditions in past years. The results will help you decide how hot, cold, wet, or windy it might be!

Date:

Astronomy

Nov. 15, 2017 Rise Set
Actual Time 6:47 AM JST 5:12 PM JST
Civil Twilight 6:21 AM JST 5:39 PM JST
Nautical Twilight 5:51 AM JST 6:09 PM JST
Astronomical Twilight 5:21 AM JST 6:38 PM JST
Moon 3:24 AM JST (11/15) 3:37 PM JST (11/15)
Length of Visible Light 11h 17m
Length of Day
10h 24m
Waning Crescent, 11% of the Moon is Illuminated
Nov 15
Waning Crescent
Nov 18
New
Nov 27
First Quarter
Dec 4
Full
Dec 10
Last Quarter

Hourly Weather History & Observations

Time (JST) Temp. Dew Point Humidity Pressure Visibility Wind Dir Wind Speed Gust Speed Precip Events Conditions
12:00 AM 57.2 °F 46.4 °F 67% 30.01 in 6.2 mi SW 3.5 mph - N/A   Partly Cloudy
1:00 AM 57.2 °F 46.4 °F 67% 30.01 in 6.2 mi SSW 5.8 mph - N/A   Scattered Clouds
2:00 AM 59.0 °F 42.8 °F 55% 30.01 in 6.2 mi WSW 12.7 mph - N/A   Partly Cloudy
3:00 AM 59.0 °F 41.0 °F 51% 30.04 in 6.2 mi West 12.7 mph - N/A   Partly Cloudy
4:00 AM 59.0 °F 39.2 °F 48% 30.04 in 6.2 mi West 11.5 mph 23.0 mph N/A   Scattered Clouds
5:00 AM 59.0 °F 39.2 °F 48% 30.04 in 6.2 mi WNW 13.8 mph - N/A   Mostly Cloudy
6:00 AM 57.2 °F 37.4 °F 48% 30.06 in 6.2 mi WNW 15.0 mph - N/A   Mostly Cloudy
7:00 AM 55.4 °F 33.8 °F 44% 30.06 in 6.2 mi NW 17.3 mph - N/A   Mostly Cloudy
8:00 AM 55.4 °F 33.8 °F 44% 30.09 in 6.2 mi NW 13.8 mph - N/A   Scattered Clouds
9:00 AM 55.4 °F 35.6 °F 47% 30.09 in 6.2 mi NW 15.0 mph - N/A   Scattered Clouds
10:00 AM 55.4 °F 35.6 °F 47% 30.12 in 6.2 mi NW 13.8 mph - N/A   Mostly Cloudy
11:00 AM 57.2 °F 35.6 °F 44% 30.09 in 6.2 mi WNW 13.8 mph - N/A   Mostly Cloudy
12:00 PM 57.2 °F 33.8 °F 41% 30.09 in 6.2 mi WNW 16.1 mph - N/A   Mostly Cloudy
1:00 PM 57.2 °F 35.6 °F 44% 30.06 in 6.2 mi WNW 15.0 mph - N/A   Mostly Cloudy
2:00 PM 57.2 °F 35.6 °F 44% 30.06 in 6.2 mi WNW 13.8 mph - N/A   Scattered Clouds
3:00 PM 57.2 °F 35.6 °F 44% 30.06 in 6.2 mi West 11.5 mph - N/A   Partly Cloudy
4:00 PM 57.2 °F 33.8 °F 41% 30.06 in 6.2 mi West 17.3 mph - N/A   Partly Cloudy
5:00 PM 57.2 °F 35.6 °F 44% 30.06 in 6.2 mi West 16.1 mph - N/A   Partly Cloudy
6:00 PM 55.4 °F 37.4 °F 51% 30.09 in 6.2 mi WSW 10.4 mph - N/A   Partly Cloudy
7:00 PM 55.4 °F 35.6 °F 47% 30.09 in 6.2 mi West 13.8 mph - N/A   Partly Cloudy
8:00 PM 57.2 °F 33.8 °F 41% 30.09 in - West 11.5 mph - N/A   Clear
9:00 PM 55.4 °F 35.6 °F 47% 30.12 in 6.2 mi WSW 11.5 mph - N/A   Scattered Clouds
10:00 PM 55.4 °F 35.6 °F 47% 30.12 in 6.2 mi WSW 11.5 mph - N/A   Scattered Clouds
11:00 PM 55.4 °F 35.6 °F 47% 30.12 in 6.2 mi West 15.0 mph - N/A   Scattered Clouds